Tracking 19562 objects as of 21-Mar-2019
HD Live streaming from Space Station
objects crossing your sky now

SSU 1

Track SSU 1 now!
10-day predictions
SSU 1 is classified as:


NORAD ID: 8835
Int'l Code: 1976-038C
Perigee: 480.2 km
Apogee: 1,456.3 km
Inclination: 63.3 °
Period: 104.3 minutes
Semi major axis: 7339 km
RCS: Unknown
Launch date: April 30, 1976
Source: United States (US)
Launch site: AIR FORCE WESTERN TEST RANGE (AFWTR)
aabbcc
Your satellite tracking list
Your tracking list is empty




NASA's NSSDC Master Catalog

Two Line Element Set (TLE):
1 08835U 76038C   19077.80259500 0.00000130  00000-0  21327-4 0    07
2 08835  63.3095 352.4017 0665001 144.6847 215.3153 13.80773685    04
Source of the keplerian elements: McCants